Showing default

IRIDIUM 169, 43926

Orbit data source: Space-Track

IRIDIUM 169, 43926 is a payload satellite owned by Iridium (US) in LEO that was launched on Fri, 11 Jan 2019 UTC via an FALCON 9 launch vehicle from the Air Force Western Test Range (AFWTR). Payload-class satellites include a variety of spacecraft equipped with specific instruments for various scientific and technological missions. These include communications satellites like Starlink; space stations such as the ISS; scientific satellites like the Hubble; Earth observation satellites from companies like Planet Labs, Umbra, and HawkEye 360; GPS; miniature CubeSats for education and research; and military/defense satellites.

Loading next visibility...
Identifier
43926, 2019-002E
Orbit
LEO
Country
Flag of USUS
Related business
Manufacturer
NGIS SSG Gilbert
Mission
Operational Commercial Communications
Bus & Motor
ELITEBUS, Unknown motor
Mass
860 kg wet, 700 kg dry
Launch date (UTC)
2019-01-11 (7 years ago)
Launch vehicle
FALCON 9
Launch site
Air Force Western Test Range (AFWTR)
Object type
Payload
Rocket body
Debris
Shape & HBR
Trap Box + 2 Pan, 4.7 m
Radar Cross Section
14.423 m², Large (>1 m²)

Expand to show TLE details & history
Last TLE update: 11 hours ago

TLE from 11 hours ago
0 IRIDIUM 169
1 43926U 19002E   25258.08961507  .00000200  00000-0  58942-4 0  9998
2 43926  86.4256 140.2184 0003112 103.9344 256.2201 14.38609272350679
Epoch: 2025-09-15T02:09Z
TLE epoch observation values (Epoch: 2025-09-15T02:09:02.742Z)
Latitude
0.00005°
Longitude
113.65771°
Altitude
766.685 km
Speed
7.471 km/s
True Right ascension
09h 20m 52s
True Declination
0° 00' 00"
Sunlit
Object was in daylight at epoch
Visualization orbit readout
Latitude
Unknown
Longitude
Unknown
Altitude
Unknown
Speed
Unknown
Apparent Right ascension
Unknown
Apparent Declination
Unknown
Sunlit
N/A
Visualization observer readout
Local Sidereal Time
05:38:48
Azimuth
Unknown
Elevation
Unknown
Doppler factor
Unknown
Orbital elements
Apogee altitude
762.276 km
Perigee altitude
757.833 km
Semi-major axis
7,138.192 km
Eccentricity
0.00031
Inclination
86.4256°
RAAN
140.2184°
Arg. of periapsis
103.9344°
True anomaly
256.18547°
Mean anomaly
256.2201°
Eccentric anomaly
256.20278°
Mean motion
3.59883 °/min
Orbital period
100.03 mins
BSTAR
0.000058942
Loading maneuver chart data...
Computing Atmospheric mass density...
Loading historical data...
Loading historical data...
Loading historical data...
Loading historical data...
Loading historical data...
Loading historical data...
Loading historical data...

Documentation

Showing up to 5 results
|